FW7036 Weather Reports


Display with metric or nautical units.
time (UTC)temp
F
wind
direction
speed
MPH
gust
MPH
rain 1hr
in
rain 24hr
in
rain mn
in
humidity
%
barometer
mb
20260508174611 55 130 8.0 16.0 0.00 0.00 0.00 52 1016.3
20260508173055 55 110 9.0 14.0 0.00 0.00 0.00 49 1016.6
20260508171556 54 161 9.0 15.0 0.00 0.00 0.00 48 1016.8
20260508170056 54 130 12.0 19.0 0.00 0.00 0.00 46 1016.9
20260508164604 54 74 8.0 15.0 0.00 0.00 0.00 43 1017.1
20260508163054 54 183 6.0 14.0 0.00 0.00 0.00 40 1017.1
20260508161556 53 111 7.0 12.0 0.00 0.00 0.00 44 1017.3
20260508160056 53 125 4.0 14.0 0.00 0.00 0.00 43 1017.5
20260508154554 52 97 6.0 15.0 0.00 0.00 0.00 46 1017.6
20260508153055 53 83 6.0 13.0 0.00 0.00 0.00 48 1017.7
20260508151557 52 114 8.0 15.0 0.00 0.00 0.00 53 1017.7
20260508150455 51 134 6.0 15.0 0.00 0.00 0.00 52 1017.7
20260508144556 52 178 4.0 15.0 0.00 0.00 0.00 53 1017.7
20260508143109 51 57 7.0 13.0 0.00 0.00 0.00 50 1017.7
20260508141554 52 109 6.0 11.0 0.00 0.00 0.00 47 1017.7
20260508140106 53 99 4.0 8.0 0.00 0.00 0.00 48 1017.7
20260508134607 52 87 2.0 8.0 0.00 0.00 0.00 46 1017.6
20260508133054 50 0 3.0 8.0 0.00 0.00 0.00 44 1017.5
20260508131559 49 15 2.0 5.0 0.00 0.00 0.00 52 1017.4
20260508130057 47 17 2.0 5.0 0.00 0.00 0.00 58 1017.4
20260508124558 46 351 3.0 6.0 0.00 0.00 0.00 60 1017.3
20260508123059 45 342 2.0 7.0 0.00 0.00 0.00 62 1017.2
20260508121557 44 340 3.0 6.0 0.00 0.00 0.00 67 1017.2
20260508120056 43 343 3.0 8.0 0.00 0.00 0.00 72 1016.9
20260508114609 42 304 2.0 8.0 0.00 0.02 0.00 76 1016.5
20260508113103 41 338 2.0 7.0 0.00 0.02 0.00 76 1016.2
20260508111612 40 346 3.0 5.0 0.00 0.02 0.00 76 1016.0
20260508110059 40 344 2.0 6.0 0.00 0.02 0.00 75 1015.7
20260508104559 40 344 3.0 9.0 0.00 0.05 0.00 76 1015.7
20260508103053 40 328 2.0 9.0 0.00 0.05 0.00 76 1015.1
20260508101557 40 299 4.0 10.0 0.00 0.05 0.00 77 1014.9
20260508100100 40 306 3.0 11.0 0.00 0.05 0.00 77 1014.7
20260508094602 40 316 2.0 12.0 0.00 0.05 0.00 77 1014.5
20260508093105 40 296 6.0 13.0 0.00 0.05 0.00 77 1014.5
20260508091608 40 276 5.0 10.0 0.00 0.05 0.00 81 1014.6
20260508090111 40 297 4.0 9.0 0.00 0.05 0.00 81 1014.5
20260508084558 40 263 4.0 11.0 0.00 0.05 0.00 80 1014.3
20260508083107 41 277 5.0 12.0 0.00 0.05 0.00 80 1014.4
20260508081604 41 277 5.0 13.0 0.00 0.05 0.00 81 1014.3
20260508074603 42 267 8.0 17.0 0.00 0.05 0.00 81 1014.2
20260508073055 42 344 9.0 20.0 0.00 0.05 0.00 81 1013.9
20260508071600 42 289 8.0 17.0 0.00 0.05 0.00 82 1013.8
20260508070057 42 299 9.0 21.0 0.00 0.05 0.00 82 1013.6
20260508064556 43 290 10.0 19.0 0.00 0.05 0.00 82 1013.7
20260508063103 43 289 8.0 20.0 0.00 0.05 0.00 84 1013.6
20260508061601 44 252 6.0 17.0 0.00 0.05 0.00 84 1013.7
20260508060055 44 294 8.0 22.0 0.00 0.05 0.00 84 1013.7
20260508054555 44 355 8.0 21.0 0.00 0.05 0.00 84 1013.8
20260508053106 44 360 8.0 24.0 0.00 0.05 0.00 83 1014.0
20260508051606 44 301 10.0 19.0 0.00 0.05 0.00 83 1014.2
20260508050058 44 304 8.0 19.0 0.00 0.05 0.00 83 1014.0
20260508044555 44 270 7.0 18.0 0.00 0.06 0.00 84 1013.6
20260508043056 44 274 7.0 17.0 0.00 0.06 0.00 85 1013.7
20260508041555 44 329 6.0 16.0 0.00 0.06 0.00 86 1013.7
20260508040057 44 290 5.0 14.0 0.00 0.06 0.00 86 1014.0
20260508034555 44 278 5.0 13.0 0.00 0.06 0.06 86 1014.2
20260508033101 44 299 5.0 13.0 0.00 0.06 0.06 85 1014.2
20260508031556 44 259 5.0 13.0 0.00 0.06 0.06 85 1014.4
20260508030055 44 273 5.0 14.0 0.00 0.06 0.06 86 1014.2
20260508024604 44 266 4.0 14.0 0.00 0.06 0.06 86 1014.0
20260508023056 44 273 5.0 19.0 0.00 0.06 0.06 86 1013.8
20260508021606 44 306 5.0 14.0 0.00 0.06 0.06 86 1013.8
20260508020058 44 258 4.0 11.0 0.00 0.06 0.06 87 1013.6
20260508014558 44 303 6.0 13.0 0.00 0.10 0.06 87 1013.6
20260508013054 44 281 5.0 14.0 0.00 0.10 0.06 86 1013.4
20260508011609 44 288 5.0 14.0 0.00 0.10 0.06 86 1013.2
20260508010058 45 348 5.0 15.0 0.00 0.10 0.06 85 1013.0
20260508004600 45 340 8.0 16.0 0.00 0.10 0.06 84 1012.9
20260508003056 45 5 6.0 15.0 0.00 0.10 0.06 84 1012.7
20260508001556 45 305 6.0 19.0 0.00 0.10 0.06 84 1012.6
20260508000100 45 279 6.0 18.0 0.00 0.10 0.06 84 1012.4
20260507234559 46 277 6.0 24.0 0.00 0.15 0.06 83 1012.4
20260507233056 46 287 8.0 18.0 0.00 0.15 0.06 84 1012.4
20260507231600 46 342 7.0 16.0 0.00 0.15 0.06 84 1012.3
20260507230058 46 252 9.0 20.0 0.00 0.15 0.06 87 1012.2
20260507224559 47 272 11.0 21.0 0.00 0.17 0.06 87 1012.1
20260507223058 46 302 10.0 21.0 0.00 0.17 0.06 89 1011.9
20260507221558 46 261 7.0 17.0 0.00 0.17 0.06 89 1011.8
20260507220059 47 324 7.0 20.0 0.00 0.17 0.06 89 1011.7
20260507214559 48 250 7.0 18.0 0.00 0.17 0.06 88 1011.8
20260507213059 50 279 7.0 13.0 0.00 0.17 0.06 88 1011.7
20260507211559 50 299 5.0 14.0 0.00 0.17 0.06 87 1011.6
20260507210103 51 290 5.0 13.0 0.00 0.17 0.06 87 1011.6
20260507204556 51 290 2.0 9.0 0.00 0.17 0.06 87 1011.5
20260507203057 52 334 4.0 14.0 0.00 0.17 0.06 86 1011.4
20260507201610 53 290 6.0 13.0 0.00 0.17 0.06 85 1011.5
20260507200057 54 21 4.0 14.0 0.00 0.17 0.06 85 1011.2
20260507194556 54 321 4.0 11.0 0.00 0.17 0.06 85 1011.4
20260507193057 55 337 3.0 13.0 0.00 0.17 0.06 85 1011.3
20260507191556 55 317 7.0 15.0 0.00 0.17 0.06 83 1011.2
20260507184554 58 347 9.0 15.0 0.00 0.17 0.06 79 1011.4
20260507183055 57 34 6.0 12.0 0.00 0.17 0.06 82 1011.3
20260507181556 58 342 8.0 14.0 0.00 0.17 0.06 81 1011.3
20260507180058 58 327 4.0 15.0 0.00 0.17 0.06 82 1011.3